Lapse_Rate
5.8 5.8 5.9 6.0 5.9 5.9 5.9 6.1 6.2 6.3 6.3 6.1 6.2 6.3 6.3 6.3 6.4 6.3 6.2 6.5 6.6 6.8 6.9 6.9 7.0 7.2 7.1 7.0 7.3 7.4 7.6 8.8 9.5 8.6 8.0 8.3 7.7 7.2 7.9 7.4 7.3 7.1 7.2 7.7 7.7
6.1 5.8 5.8 5.9 5.9 5.9 6.0 6.0 6.1 6.3 6.3 6.2 6.2 6.2 6.3 6.3 6.3 6.2 6.6 6.5 6.7 6.8 6.9 7.0 7.1 7.2 6.7 6.7 7.0 7.2 8.1 9.2 7.8 7.6 7.6 7.4 7.8 7.3 7.6 7.4 7.4 7.2 7.0 7.8 7.8
6.0 6.0 5.8 5.9 5.8 5.8 5.8 5.9 6.0 6.1 6.3 6.3 6.3 6.2 6.3 6.3 6.4 5.9 6.5 6.6 6.8 6.9 6.9 7.1 7.2 7.2 6.8 7.0 7.0 7.3 7.8 7.1 7.4 7.4 7.6 7.2 7.3 7.2 7.2 7.4 7.2 7.2 7.6 7.6 7.7
6.0 5.9 5.9 5.8 5.7 5.6 5.7 5.8 6.0 5.9 6.1 6.3 6.3 6.3 6.4 6.4 6.1 6.6 6.7 6.8 6.8 6.9 7.1 7.2 7.3 7.3 6.9 7.1 7.5 7.6 7.4 7.7 6.9 7.6 7.5 7.4 7.0 7.0 7.0 7.2 6.9 7.6 7.7 7.6 7.0
6.0 5.9 5.9 5.8 5.7 5.6 5.7 5.8 6.0 5.9 6.0 6.1 6.2 6.2 6.3 6.3 6.0 6.6 6.7 6.9 7.0 7.0 7.0 7.0 7.1 7.1 6.9 6.8 7.5 7.6 7.2 7.4 7.5 7.6 7.5 7.5 7.5 7.0 7.1 6.9 7.1 6.9 7.5 7.4 7.5
5.9 5.9 5.8 5.9 5.7 5.6 5.7 5.6 5.8 5.9 6.0 6.0 6.0 6.1 6.1 6.4 6.2 6.6 6.7 6.7 6.8 6.8 6.9 6.8 6.9 7.1 7.0 7.2 7.1 7.0 7.5 7.5 7.3 7.4 7.1 7.5 7.0 7.2 6.9 6.8 6.5 6.3 6.2 6.3 6.8
5.8 5.7 5.7 5.8 5.7 5.6 5.6 5.6 5.7 5.7 5.9 6.0 5.9 5.9 5.9 6.4 6.4 6.6 6.6 6.8 7.0 6.8 6.9 7.1 7.1 6.9 7.1 7.0 7.3 7.4 7.5 7.1 7.1 7.1 6.9 7.6 7.6 7.2 6.9 6.5 6.7 6.7 6.2 6.2 6.2
5.8 5.7 5.8 5.7 5.6 5.5 5.6 5.4 5.5 5.6 5.7 5.8 5.9 5.7 5.9 6.5 6.4 6.6 6.7 6.8 7.0 6.9 6.9 7.0 7.0 7.0 7.0 7.2 7.3 7.3 7.0 7.6 8.0 7.2 7.0 7.4 8.0 8.0 6.6 6.5 6.8 6.9 6.6 6.2 6.2
6.0 5.7 5.8 5.6 5.6 5.4 5.5 5.4 5.4 5.4 5.6 5.7 5.8 5.6 5.8 6.6 6.4 6.5 6.7 6.8 6.7 6.8 6.8 6.9 6.9 6.9 7.1 7.2 7.1 7.2 8.0 8.5 8.2 7.5 7.3 6.9 7.8 8.1 7.3 6.8 6.6 6.7 6.5 6.0 6.3
6.3 6.0 6.0 5.5 5.5 5.5 5.5 5.1 5.4 5.3 5.4 5.3 5.5 5.4 5.7 6.6 6.6 6.6 6.6 6.8 6.8 6.8 6.7 6.8 6.8 6.9 7.1 6.7 7.9 9.0 8.8 8.3 8.1 8.0 6.9 7.1 7.5 7.5 7.4 6.9 6.3 6.3 6.2 6.0 6.5
5.4 6.0 6.3 6.0 5.4 5.5 5.3 4.9 4.9 4.6 4.7 5.3 5.4 6.0 5.5 6.7 6.9 6.9 6.8 6.7 6.9 6.7 6.6 6.8 6.5 6.4 7.0 7.1 7.3 7.3 7.5 7.9 8.1 8.2 7.0 6.7 7.2 7.3 7.2 6.8 6.5 6.3 6.2 6.0 6.4
4.5 4.9 5.1 5.7 6.1 5.7 5.4 5.5 5.8 5.1 5.4 5.9 5.6 6.0 5.9 6.5 6.8 6.7 6.7 6.6 6.7 6.9 6.6 5.7 6.1 6.6 6.8 6.9 7.0 6.8 7.1 7.5 7.7 7.7 6.6 6.7 6.9 7.2 7.2 6.8 6.5 6.3 6.2 6.1 5.9
4.7 4.4 4.5 4.7 5.4 5.9 5.6 5.8 5.5 5.2 4.9 5.2 5.9 6.1 5.7 6.1 6.4 6.4 6.6 6.1 6.6 6.3 6.1 6.3 6.9 6.8 6.6 6.4 6.7 7.0 7.1 7.5 7.6 7.4 6.5 6.6 6.7 7.5 7.3 6.5 6.2 6.7 6.3 6.1 6.5
4.1 4.7 4.3 4.6 5.2 5.2 5.1 5.0 4.8 4.6 4.6 5.0 5.4 5.6 4.8 5.3 5.8 5.6 6.5 6.3 5.6 6.0 6.3 6.1 6.8 6.4 6.6 6.4 6.7 7.3 7.6 6.9 6.9 7.0 7.4 7.3 7.8 8.1 6.9 6.5 6.2 6.1 6.1 6.2 6.9
3.9 4.3 4.2 4.4 4.6 4.6 5.0 4.2 4.3 4.5 5.2 5.6 4.7 5.6 6.0 5.8 6.0 6.3 6.3 5.7 5.5 5.9 6.0 6.1 6.4 6.0 6.4 6.8 7.0 7.0 7.0 6.7 6.7 6.8 7.1 7.5 7.4 8.0 7.9 6.6 6.5 6.2 6.0 6.9 7.0
3.7 3.9 3.7 4.0 5.0 4.8 4.8 4.4 3.8 4.1 4.0 5.6 4.6 4.7 5.3 5.4 5.7 5.8 5.9 5.5 6.2 5.7 5.8 6.4 6.2 6.1 6.3 6.6 6.6 6.8 6.6 6.6 6.7 6.9 7.1 7.2 7.6 8.4 8.8 7.7 6.9 6.4 6.1 7.1 7.1
3.5 3.5 3.8 4.3 4.9 5.3 4.8 4.3 4.2 3.8 3.8 4.5 3.6 4.0 4.7 4.6 5.1 5.4 4.7 4.9 5.3 5.4 5.6 5.8 6.2 6.0 6.1 6.3 6.1 6.3 6.7 7.4 7.5 7.5 7.3 8.0 7.9 7.8 7.7 7.4 6.9 6.5 6.3 7.1 7.3
3.3 3.4 3.7 4.2 4.8 5.1 5.2 4.7 4.3 3.8 3.8 4.7 4.3 4.2 4.7 5.0 5.0 5.3 5.0 4.9 5.3 6.2 7.1 6.8 7.0 6.5 5.8 6.4 6.8 6.5 7.1 8.0 8.3 8.5 8.7 8.6 6.9 7.5 7.8 7.1 7.0 6.6 6.6 7.3 7.4
4.0 3.7 3.8 4.6 4.2 4.8 5.3 4.7 4.6 4.2 4.9 4.9 4.7 4.8 5.0 5.3 5.8 5.9 5.5 5.4 5.6 5.9 6.5 7.4 7.3 7.7 6.3 5.9 6.8 6.7 6.4 7.3 7.7 7.7 7.0 7.8 7.3 6.8 7.2 6.3 6.7 6.5 7.2 7.4 7.5
4.3 4.7 4.1 4.9 4.7 4.2 5.2 5.5 5.1 5.2 5.4 5.5 5.0 4.7 5.0 5.4 5.3 5.7 5.5 5.4 5.8 5.9 6.6 7.4 7.8 6.8 6.6 6.0 6.2 6.9 6.9 6.7 7.0 6.8 7.0 7.6 7.8 8.0 6.5 6.3 6.7 6.8 7.3 7.4 7.5
4.1 4.5 5.2 4.9 5.4 5.7 5.5 5.2 5.2 5.5 5.5 5.5 5.7 5.4 5.4 5.5 5.7 5.8 5.7 6.1 6.0 6.6 6.4 6.8 7.1 6.0 6.5 5.6 6.4 6.5 6.5 6.6 7.1 7.1 7.8 7.7 8.1 8.2 7.2 7.2 7.4 7.0 6.8 7.3 7.6
4.3 4.4 5.3 6.0 6.3 6.2 5.5 5.5 5.5 6.0 5.7 5.6 5.7 5.9 6.1 5.7 5.7 5.4 5.8 6.1 6.1 6.5 6.0 6.4 6.2 6.6 6.3 6.3 6.6 6.8 6.7 6.9 7.1 7.1 6.8 7.3 7.3 7.3 7.4 6.8 6.9 6.8 7.0 6.8 7.5
4.2 4.1 5.1 6.2 6.7 6.4 6.2 5.8 6.1 5.9 5.4 5.3 5.2 5.6 5.9 6.0 6.1 5.7 6.0 6.2 5.9 6.1 6.1 6.2 6.0 6.8 6.5 6.0 6.3 6.5 6.6 6.9 7.0 7.2 7.0 7.3 7.0 7.2 6.9 7.4 7.1 7.2 7.0 7.0 7.1
4.7 4.2 5.0 5.8 6.7 6.7 6.2 6.1 5.6 5.7 5.6 5.8 5.5 5.7 6.1 5.8 6.2 6.2 6.4 5.6 6.2 6.1 6.3 6.3 6.6 6.8 6.7 7.0 7.2 6.8 7.1 7.2 7.4 7.0 6.9 6.8 7.6 7.7 6.8 7.3 7.3 7.1 7.1 6.8 6.7
5.7 4.6 4.8 5.8 6.4 6.5 6.4 6.5 6.2 5.9 5.9 5.9 5.7 5.9 5.9 6.1 6.0 6.0 6.0 5.7 5.9 5.7 5.9 6.1 6.4 6.7 7.5 8.3 7.6 7.7 7.4 7.6 7.7 7.2 7.4 7.0 7.4 7.5 8.3 7.3 7.2 7.2 7.1 7.2 7.1
6.4 5.2 5.4 5.9 6.4 6.6 6.3 6.0 6.2 6.5 6.1 5.9 6.0 5.9 6.0 6.2 6.2 5.7 5.6 6.3 5.6 5.3 5.6 5.8 6.4 6.5 6.9 7.5 7.7 7.7 7.6 7.6 7.7 7.8 7.7 7.4 7.2 7.5 8.1 8.3 8.3 7.0 7.4 7.5 7.0
7.2 6.0 5.8 6.4 5.9 6.2 6.1 6.1 6.2 6.5 6.8 7.3 6.6 6.1 6.1 6.3 6.2 6.4 6.0 5.7 5.9 5.9 5.8 6.1 6.2 6.2 6.7 7.4 7.3 6.7 6.5 7.7 7.7 7.7 7.6 7.4 7.3 7.7 8.0 8.1 8.3 7.5 7.3 7.2 7.1
Wind_Speed
24 24 22 20 19 17 14 11 8 5 6 9 13 17 21 24 28 12 11 5 7 15 16 14 9 4 9 6 7 6 9 10 8 3 9 4 3 8 2 6 4 1 4 7 3
25 24 23 22 21 18 16 12 9 7 6 9 13 17 21 24 15 13 5 6 8 13 9 7 3 6 9 6 4 9 9 7 10 6 3 2 2 4 5 5 7 4 2 5 5
27 26 24 23 22 21 18 14 10 8 6 8 12 17 21 19 14 2 6 1 7 12 10 9 8 8 9 5 4 2 10 9 5 4 4 4 6 5 8 10 3 7 9 7 8
28 26 25 24 22 22 20 16 13 9 7 7 10 16 23 10 4 7 4 1 6 10 9 6 6 8 7 7 2 6 2 3 2 2 5 7 9 10 9 10 4 6 5 9 9
30 28 27 25 23 23 21 19 14 11 8 7 9 15 10 9 11 11 4 7 9 5 5 5 8 5 9 3 7 10 7 3 5 7 9 10 12 11 12 8 3 3 6 7 8
31 30 28 26 24 23 23 20 16 12 8 6 8 13 10 14 4 4 2 4 5 6 3 4 2 3 4 7 7 4 7 10 8 10 9 9 11 4 7 3 8 4 5 5 6
31 29 29 27 25 24 23 21 17 13 9 5 7 8 11 14 3 4 3 3 1 2 3 2 4 7 2 4 2 7 11 10 13 11 8 4 14 17 8 5 8 7 3 5 4
31 30 29 27 26 24 23 22 18 13 8 5 6 9 9 1 8 11 8 7 5 2 4 1 5 7 8 2 6 9 9 11 8 8 8 5 11 10 9 3 10 5 6 5 4
19 29 28 28 28 25 23 21 17 12 7 6 6 9 12 5 11 15 14 12 11 7 6 3 5 6 4 12 11 11 11 13 10 11 6 9 10 1 8 8 8 10 7 3 5
16 23 29 29 29 27 26 21 15 11 8 8 5 5 10 9 10 7 14 14 10 11 8 10 7 8 10 13 12 12 13 10 9 6 8 12 16 13 13 8 7 8 5 4 2
18 17 30 30 30 32 24 12 8 7 16 15 10 14 3 7 4 10 13 17 13 14 14 16 10 14 19 16 17 14 14 16 16 11 5 15 19 15 9 9 11 7 4 3 3
21 16 22 32 32 37 25 19 26 4 10 25 20 17 3 6 9 12 15 15 16 17 17 10 19 17 15 8 13 13 15 16 16 15 6 16 19 15 11 10 6 8 7 4 4
21 20 15 29 37 23 26 31 14 4 7 16 31 21 18 12 13 20 21 17 18 21 22 18 8 20 14 13 13 14 16 16 16 6 13 18 19 24 11 7 8 7 4 5 4
22 19 17 22 20 18 24 25 7 7 6 15 15 19 25 11 11 17 23 16 13 20 18 16 15 11 14 17 12 16 13 13 15 11 11 2 12 5 15 13 13 10 9 7 9
22 22 20 26 5 19 20 15 5 1 7 11 23 11 21 23 12 22 23 21 17 13 18 12 13 14 17 16 14 11 4 8 12 14 15 18 9 16 18 17 15 12 11 9 7
20 20 21 13 5 15 25 12 5 6 11 9 16 20 24 28 24 17 24 19 14 16 16 19 6 13 15 11 11 3 7 8 9 10 14 17 16 12 15 15 15 14 12 10 10
19 19 18 8 6 22 20 11 5 8 3 10 17 22 27 19 28 20 27 27 16 17 23 18 19 12 11 13 12 13 11 6 8 10 12 12 13 16 7 6 18 16 13 11 11
18 17 10 9 25 24 13 10 7 15 24 13 17 19 26 22 28 27 25 24 28 23 12 17 14 24 17 20 13 21 19 9 12 12 14 10 8 11 1 12 14 16 14 14 13
16 7 5 9 25 18 14 15 12 16 29 13 21 23 22 28 14 26 30 28 29 30 18 17 17 14 16 22 21 18 21 18 18 8 6 10 9 8 7 12 15 17 16 15 14
9 7 12 14 26 17 18 16 12 21 23 22 16 18 25 29 20 27 23 26 29 34 26 18 14 11 19 15 22 25 13 14 11 11 18 13 19 15 18 17 18 19 18 17 16
9 7 6 17 15 13 18 13 10 20 15 23 21 20 23 26 25 29 17 15 33 31 30 20 16 9 19 16 19 17 17 14 14 14 9 15 14 11 20 20 21 20 19 18 17
10 8 8 14 14 4 20 13 14 22 17 17 14 20 23 25 27 24 23 25 21 26 33 27 11 14 19 18 19 21 19 21 10 19 19 15 17 6 4 16 18 20 20 18 17
8 6 8 13 15 7 4 10 24 25 23 18 14 24 17 21 17 20 23 17 12 23 25 23 7 10 10 9 11 19 21 21 21 11 19 12 6 5 5 11 17 18 18 18 18
6 5 6 5 8 17 10 13 18 28 28 21 18 20 17 17 16 20 15 16 14 22 14 21 15 19 13 14 13 23 22 26 22 16 17 22 17 13 10 12 13 15 16 19 18
6 5 4 7 11 15 23 23 26 15 20 23 18 23 19 17 20 16 18 12 9 17 14 18 13 20 18 14 5 14 23 25 28 28 19 26 25 22 16 17 16 16 17 18 18
4 2 5 5 15 8 23 27 31 21 19 27 11 22 24 17 15 15 20 12 14 16 17 14 7 8 15 16 14 15 19 23 23 27 27 28 30 21 17 16 15 15 16 18 20
6 4 3 7 10 11 8 18 36 28 25 30 28 25 23 25 20 14 7 7 8 12 13 10 7 6 9 14 14 13 24 22 22 22 23 23 27 21 20 19 19 14 15 19 20
Wind_Direction
212 212 212 214 219 224 229 233 242 268 302 316 322 325 325 324 316 262 263 45 354 323 311 267 240 258 230 239 254 261 258 252 234 222 99 98 283 96 326 284 300 354 349 32 32
210 212 211 208 213 218 225 227 234 248 283 309 318 321 321 323 298 272 91 51 333 313 315 326 306 284 225 235 224 247 260 354 36 34 75 163 234 337 287 251 294 246 113 173 268
210 210 210 207 208 212 215 221 226 237 263 296 311 317 318 317 282 166 90 25 319 299 305 297 281 276 254 243 198 241 267 29 89 26 326 308 276 290 278 284 271 323 307 303 286
206 209 207 204 204 207 210 213 215 227 248 282 307 314 314 287 266 83 111 266 277 288 289 284 258 250 264 230 237 258 213 277 39 192 275 278 302 290 282 278 323 278 307 288 289
203 204 204 203 201 202 206 207 209 216 231 271 304 313 304 238 260 125 191 209 255 279 288 272 259 252 241 241 247 243 268 247 249 248 255 274 266 271 268 259 209 269 277 297 311
203 202 202 200 198 198 201 201 202 205 221 253 295 308 260 255 76 136 211 251 256 231 203 246 331 308 297 256 258 27 289 272 255 253 250 248 268 228 203 165 244 189 282 303 314
206 202 199 195 195 192 194 195 194 199 207 234 285 280 262 244 37 167 179 223 100 299 173 18 330 278 4 252 280 272 274 253 234 238 230 251 248 217 219 212 244 214 183 298 312
205 203 197 192 189 187 187 187 187 187 194 218 268 259 257 89 263 226 203 192 204 219 314 302 309 281 253 341 240 256 247 267 115 182 169 223 282 164 164 206 271 278 273 267 283
230 203 196 188 182 180 175 177 173 170 176 210 234 236 251 100 222 225 217 221 204 225 250 262 247 251 222 235 238 210 262 233 193 190 253 213 284 300 186 242 268 274 276 304 287
243 219 195 191 178 166 156 156 145 147 201 209 258 230 234 227 195 198 203 208 184 194 199 214 222 220 216 233 236 255 226 224 255 171 219 262 256 261 259 263 250 273 268 244 263
241 239 201 186 171 155 135 132 159 211 201 200 193 214 339 127 168 200 187 191 197 193 203 202 214 216 226 225 260 297 277 276 282 272 283 266 265 262 252 239 233 229 226 193 193
228 232 215 184 170 158 167 190 188 290 198 231 252 233 180 216 190 188 184 185 187 201 202 182 230 228 235 262 238 244 258 264 270 269 296 266 267 260 236 224 219 214 196 188 141
212 216 217 192 163 165 191 194 186 170 244 184 219 213 211 209 213 188 189 207 199 204 198 207 228 213 230 218 228 238 255 265 270 248 228 258 272 247 212 181 194 201 174 141 112
201 207 206 188 160 175 197 196 229 168 254 209 197 225 216 212 229 211 196 197 206 214 196 232 243 205 203 226 220 252 248 255 267 255 263 88 268 152 150 185 196 183 171 142 130
193 195 187 162 166 187 170 181 82 242 221 208 183 176 193 197 144 199 186 206 217 208 196 207 221 203 216 222 227 258 296 248 253 252 262 257 244 271 171 186 193 183 164 146 131
186 195 181 182 229 186 158 104 35 141 224 187 144 183 176 200 221 169 183 207 221 214 214 229 193 209 230 234 229 235 221 233 246 252 250 250 254 249 207 205 169 170 168 154 144
182 188 186 170 191 142 141 130 132 195 201 199 178 187 186 184 206 184 186 194 188 198 218 214 230 216 228 196 201 196 200 215 229 221 242 260 230 233 106 173 162 172 166 157 151
178 176 218 184 146 148 156 152 188 193 198 156 178 183 194 175 203 186 188 199 212 211 201 210 212 206 196 213 195 201 203 217 224 246 261 198 227 243 309 151 156 168 164 161 158
173 182 219 198 167 152 165 188 189 192 202 176 169 182 193 194 188 189 205 206 204 209 212 206 225 199 200 213 222 195 224 235 267 261 271 256 195 181 162 159 167 170 174 174 169
196 188 222 218 176 169 178 196 208 218 186 178 172 183 189 191 196 194 198 222 215 207 218 238 232 193 180 202 226 237 203 219 229 238 237 244 248 261 172 177 184 188 186 182 179
194 203 203 222 184 185 193 189 205 214 238 179 190 188 197 191 200 193 202 208 208 205 209 220 223 191 196 203 198 203 220 219 222 227 236 251 257 330 164 192 195 198 197 190 186
193 206 188 195 201 184 192 170 203 193 216 205 201 203 190 189 197 190 218 205 199 198 197 202 207 191 206 199 227 206 208 210 213 218 232 260 263 117 194 190 195 199 197 196 194
202 204 238 219 203 194 187 200 185 194 196 213 212 210 217 191 192 196 207 197 194 188 195 186 219 180 198 182 212 225 214 219 220 241 243 222 234 90 177 183 195 205 199 204 199
186 193 216 245 226 179 168 188 190 200 197 200 222 208 218 200 209 199 184 180 195 196 181 186 198 199 194 201 201 210 220 215 215 225 238 243 251 210 196 207 210 209 209 206 205
185 193 239 203 245 231 199 174 189 184 208 187 217 215 185 186 190 206 165 152 197 176 176 198 225 207 209 229 233 197 217 223 222 226 225 246 247 249 225 210 221 217 220 216 216
170 168 190 259 189 241 192 200 187 171 175 191 193 210 196 194 177 187 181 170 173 176 192 214 198 214 225 244 243 245 223 221 230 236 239 248 254 259 266 271 264 221 221 219 215
209 218 180 287 214 190 207 206 199 191 187 183 192 197 205 210 201 191 80 72 137 167 188 187 206 172 235 229 245 251 233 235 237 233 235 241 254 265 261 256 254 221 239 229 222